When you browse on this site, cookies collect data to enhance your experience and personalize the content and advertising you see.
Visit our Privacy Policy to learn more. By continuing to use the site, you agree to this use of cookies and data.
  • en France
  • Liste des pays
  • À 7 jours
  • Température de l'eau
  • Carte météo
  • Widgets météo
  • user-avatar
    Se connecter

    Météo par heure à Poprad

    Ce jour, 23 Août, Vendredi

    Heure Température Précipitation Vent Pression Humidité
    00:00 +14°C° 0.3 mm 1 m/s 707 mmHg 96%
    01:00 +14°C° 0.3 mm 1 m/s 707 mmHg 96%
    02:00 +14°C° 0.1 mm 1 m/s 707 mmHg 96%
    03:00 +14°C° 0.1 mm 1 m/s 707 mmHg 96%
    04:00 +14°C° 0.1 mm 1 m/s 707 mmHg 96%
    05:00 +15°C° 0 mm 1 m/s 707 mmHg 95%
    06:00 +16°C° 0 mm 1 m/s 707 mmHg 94%
    07:00 +18°C° 0 mm 1 m/s 707 mmHg 92%
    08:00 +19°C° 0 mm 1 m/s 708 mmHg 88%
    09:00 +21°C° 0 mm 1 m/s 708 mmHg 83%
    10:00 +22°C° 0 mm 1 m/s 708 mmHg 78%
    11:00 +23°C° 0.4 mm 1 m/s 708 mmHg 77%
    12:00 +23°C° 0.4 mm 1 m/s 708 mmHg 75%
    13:00 +24°C° 0.4 mm 1 m/s 708 mmHg 74%
    14:00 +23°C° 0.4 mm 1 m/s 708 mmHg 76%
    15:00 +23°C° 0.4 mm 1 m/s 707 mmHg 79%
    16:00 +23°C° 0.4 mm 1 m/s 707 mmHg 81%
    17:00 +21°C° 0.1 mm 1 m/s 707 mmHg 86%
    18:00 +20°C° 0.1 mm 1 m/s 707 mmHg 90%
    19:00 +18°C° 0.1 mm 1 m/s 706 mmHg 95%
    20:00 +18°C° 0 mm 1 m/s 706 mmHg 95%
    21:00 +16°C° 0 mm 1 m/s 706 mmHg 95%
    22:00 +16°C° 0 mm 1 m/s 706 mmHg 94%
    23:00 +16°C° 0 mm 1 m/s 706 mmHg 94%

    Demain, 24 Août, Samedi

    Heure Température Précipitation Vent Pression Humidité
    00:00 +16°C° 0 mm 1 m/s 706 mmHg 93%
    01:00 +16°C° 0 mm 1 m/s 706 mmHg 92%
    02:00 +16°C° 0 mm 1 m/s 706 mmHg 91%
    03:00 +16°C° 0 mm 1 m/s 706 mmHg 89%
    04:00 +16°C° 0 mm 1 m/s 706 mmHg 88%
    05:00 +16°C° 0 mm 0 m/s 706 mmHg 85%
    06:00 +18°C° 0 mm 0 m/s 706 mmHg 82%
    07:00 +19°C° 0 mm 0 m/s 706 mmHg 79%
    08:00 +21°C° 0 mm 0 m/s 707 mmHg 71%
    09:00 +23°C° 0 mm 0 m/s 707 mmHg 63%
    10:00 +26°C° 0 mm 0 m/s 708 mmHg 55%
    11:00 +28°C° 0.3 mm 1 m/s 707 mmHg 53%
    12:00 +29°C° 0.3 mm 1 m/s 707 mmHg 52%
    13:00 +29°C° 0.3 mm 1 m/s 707 mmHg 50%
    14:00 +28°C° 0.6 mm 1 m/s 707 mmHg 55%
    15:00 +28°C° 0.6 mm 1 m/s 706 mmHg 60%
    16:00 +27°C° 0.6 mm 1 m/s 706 mmHg 65%
    17:00 +25°C° 1.1 mm 1 m/s 706 mmHg 72%
    18:00 +23°C° 1.1 mm 1 m/s 705 mmHg 79%
    19:00 +21°C° 1.1 mm 1 m/s 705 mmHg 87%
    20:00 +20°C° 0.8 mm 1 m/s 705 mmHg 87%
    21:00 +20°C° 0.8 mm 1 m/s 705 mmHg 88%
    22:00 +19°C° 0.8 mm 1 m/s 705 mmHg 89%
    23:00 +19°C° 0 mm 1 m/s 705 mmHg 89%

    Après-demain, 25 Août, Dimanche

    Heure Température Précipitation Vent Pression Humidité
    00:00 +19°C° 0 mm 1 m/s 705 mmHg 88%
    01:00 +19°C° 0 mm 1 m/s 705 mmHg 87%
    02:00 +18°C° 0 mm 1 m/s 705 mmHg 87%
    03:00 +18°C° 0 mm 1 m/s 705 mmHg 86%
    04:00 +18°C° 0 mm 1 m/s 704 mmHg 86%
    05:00 +17°C° 0 mm 0 m/s 705 mmHg 84%
    06:00 +19°C° 0 mm 0 m/s 705 mmHg 82%
    07:00 +20°C° 0 mm 0 m/s 705 mmHg 80%
    08:00 +22°C° 0 mm 0 m/s 706 mmHg 72%
    09:00 +24°C° 0 mm 0 m/s 706 mmHg 63%
    10:00 +26°C° 0 mm 0 m/s 707 mmHg 55%
    11:00 +28°C° 0.7 mm 1 m/s 706 mmHg 55%
    12:00 +28°C° 0.7 mm 1 m/s 706 mmHg 55%
    13:00 +29°C° 0.7 mm 1 m/s 706 mmHg 55%
    14:00 +28°C° 0.9 mm 1 m/s 706 mmHg 61%
    15:00 +27°C° 0.9 mm 1 m/s 705 mmHg 66%
    16:00 +26°C° 0.9 mm 1 m/s 705 mmHg 72%
    17:00 +24°C° 0.6 mm 1 m/s 705 mmHg 76%
    18:00 +23°C° 0.6 mm 1 m/s 705 mmHg 81%
    19:00 +21°C° 0.6 mm 1 m/s 704 mmHg 85%
    20:00 +20°C° 0.6 mm 1 m/s 704 mmHg 86%
    21:00 +20°C° 0.6 mm 1 m/s 705 mmHg 88%
    22:00 +19°C° 0.6 mm 1 m/s 705 mmHg 89%
    23:00 +19°C° 0.1 mm 1 m/s 705 mmHg 89%

    26 Août, Lundi

    Heure Température Précipitation Vent Pression Humidité
    00:00 +19°C° 0.1 mm 1 m/s 704 mmHg 88%
    01:00 +19°C° 0.1 mm 1 m/s 704 mmHg 88%
    02:00 +19°C° 0 mm 1 m/s 704 mmHg 88%
    03:00 +18°C° 0 mm 1 m/s 704 mmHg 87%
    04:00 +18°C° 0 mm 1 m/s 704 mmHg 87%
    05:00 +18°C° 0 mm 0 m/s 704 mmHg 84%
    06:00 +19°C° 0 mm 0 m/s 704 mmHg 82%
    07:00 +20°C° 0 mm 0 m/s 705 mmHg 80%
    08:00 +22°C° 0.4 mm 0 m/s 705 mmHg 75%
    09:00 +25°C° 0.4 mm 1 m/s 705 mmHg 70%
    10:00 +27°C° 0.4 mm 1 m/s 706 mmHg 65%
    11:00 +27°C° 1.4 mm 1 m/s 706 mmHg 64%
    12:00 +27°C° 1.4 mm 1 m/s 705 mmHg 63%
    13:00 +27°C° 1.4 mm 1 m/s 705 mmHg 62%
    14:00 +27°C° 0.5 mm 1 m/s 705 mmHg 64%
    15:00 +27°C° 0.5 mm 1 m/s 704 mmHg 66%
    16:00 +24°C° 0.5 mm 0 m/s 704 mmHg 69%
    17:00 +23°C° 0.1 mm 0 m/s 704 mmHg 73%
    18:00 +21°C° 0.1 mm 0 m/s 704 mmHg 77%
    19:00 +19°C° 0.1 mm 0 m/s 703 mmHg 81%
    20:00 +18°C° 0 mm 0 m/s 703 mmHg 82%
    21:00 +20°C° 0 mm 1 m/s 703 mmHg 84%
    22:00 +19°C° 0 mm 1 m/s 704 mmHg 85%
    23:00 +19°C° 0 mm 1 m/s 704 mmHg 85%

    27 Août, Mardi

    Heure Température Précipitation Vent Pression Humidité
    00:00 +19°C° 0 mm 1 m/s 703 mmHg 85%
    01:00 +19°C° 0 mm 1 m/s 703 mmHg 85%
    02:00 +19°C° 0 mm 1 m/s 703 mmHg 85%
    03:00 +18°C° 0 mm 1 m/s 703 mmHg 84%
    04:00 +18°C° 0 mm 1 m/s 703 mmHg 84%
    05:00 +20°C° 0 mm 1 m/s 703 mmHg 81%
    06:00 +19°C° 0 mm 0 m/s 704 mmHg 78%
    07:00 +20°C° 0 mm 0 m/s 704 mmHg 75%
    08:00 +22°C° 0 mm 0 m/s 705 mmHg 68%
    09:00 +24°C° 0 mm 0 m/s 705 mmHg 61%
    10:00 +28°C° 0 mm 1 m/s 705 mmHg 53%
    11:00 +28°C° 0.2 mm 1 m/s 705 mmHg 51%
    12:00 +29°C° 0.2 mm 1 m/s 705 mmHg 50%
    13:00 +29°C° 0.2 mm 1 m/s 705 mmHg 48%
    14:00 +28°C° 0.4 mm 1 m/s 705 mmHg 53%
    15:00 +28°C° 0.4 mm 1 m/s 704 mmHg 57%
    16:00 +27°C° 0.4 mm 1 m/s 704 mmHg 62%
    17:00 +25°C° 0.1 mm 1 m/s 704 mmHg 68%
    18:00 +23°C° 0.1 mm 1 m/s 704 mmHg 74%
    19:00 +19°C° 0.1 mm 0 m/s 703 mmHg 81%
    20:00 +20°C° 0 mm 1 m/s 703 mmHg 82%
    21:00 +20°C° 0 mm 1 m/s 704 mmHg 83%
    22:00 +19°C° 0 mm 1 m/s 704 mmHg 84%
    23:00 +19°C° 0 mm 1 m/s 704 mmHg 84%

    28 Août, Mercredi

    Heure Température Précipitation Vent Pression Humidité
    00:00 +19°C° 0 mm 1 m/s 704 mmHg 83%
    01:00 +19°C° 0 mm 1 m/s 704 mmHg 83%
    02:00 +19°C° 0 mm 1 m/s 704 mmHg 82%
    03:00 +18°C° 0 mm 1 m/s 703 mmHg 81%
    04:00 +18°C° 0 mm 1 m/s 703 mmHg 80%
    05:00 +20°C° 0 mm 1 m/s 704 mmHg 77%
    06:00 +21°C° 0 mm 1 m/s 704 mmHg 74%
    07:00 +22°C° 0 mm 1 m/s 704 mmHg 72%
    08:00 +24°C° 0 mm 1 m/s 704 mmHg 64%
    09:00 +26°C° 0 mm 1 m/s 705 mmHg 56%
    10:00 +28°C° 0 mm 1 m/s 705 mmHg 48%
    11:00 +28°C° 0 mm 2 m/s 705 mmHg 47%
    12:00 +28°C° 0 mm 2 m/s 704 mmHg 45%
    13:00 +29°C° 0 mm 2 m/s 704 mmHg 43%
    14:00 +28°C° 0 mm 2 m/s 704 mmHg 46%
    15:00 +28°C° 0 mm 2 m/s 703 mmHg 49%
    16:00 +28°C° 0 mm 2 m/s 703 mmHg 52%
    17:00 +25°C° 0 mm 1 m/s 703 mmHg 58%
    18:00 +23°C° 0 mm 1 m/s 702 mmHg 65%
    19:00 +21°C° 0 mm 1 m/s 702 mmHg 71%
    20:00 +20°C° 0 mm 1 m/s 702 mmHg 71%
    21:00 +20°C° 0 mm 1 m/s 702 mmHg 71%
    22:00 +20°C° 0 mm 1 m/s 702 mmHg 71%
    23:00 +19°C° 0 mm 1 m/s 702 mmHg 71%
    Voir plus